#timestamp,LO_Frequency,Hit,StdDev 
1598065215.5,286046999.8,N
1598065235.3,286046999.7,N
1598065255.2,286047002.8,N
1598065275.9,286047002.3,N
1598065295.7,286047002.7,N
1598065315.6,286047002.4,N
1598065335.4,286047002.8,N
1598065355.3,286046999.9,N
1598065375.1,286047002.7,N
1598065376.0,286047002.7,N
1598065395.8,286047002.5,N
1598065415.7,286047001.4,N
1598065435.5,286047001.7,N
1598065455.3,286047001.7,N
1598065475.2,286047002.5,N
1598065495.0,286047002.2,N
1598065495.9,286047002.2,N
1598065515.8,286047002.5,N
1598065535.6,286047002.6,N
1598065555.4,286047002.0,N
1598065575.3,286047002.6,N
1598065595.1,286046999.8,N
1598065615.9,286046999.8,N
1598065635.7,286046999.8,N
1598065655.5,286047000.6,N
1598065675.4,286047002.6,N
1598065695.2,286047002.3,N
1598065715.0,286047002.7,N
1598065716.0,286047002.7,N
1598065735.8,286047002.4,N
1598065755.6,286047002.7,N
1598065775.5,286046999.7,N
1598065795.3,286047002.7,N
1598065815.1,286046999.8,N
1598065835.9,286047000.2,N
1598065855.7,286047000.0,N
1598065875.6,286047000.0,N
1598065895.4,286047001.0,N
1598065915.2,286047000.2,N
1598065935.1,286046999.8,N
1598065936.0,286046999.8,N
1598065955.8,286046999.7,N
1598065975.7,286047000.1,N
1598065995.5,286047001.5,N
1598066015.3,286047004.4,Y
1598066035.2,286047002.8,P
1598066055.0,286047000.8,N
1598066055.9,286047000.8,N
1598066075.7,286047000.2,N
1598066095.6,286047000.1,N
1598066115.4,286046999.9,N
1598066135.3,286047000.7,N
1598066155.1,286047001.1,N
1598066175.8,286046999.8,N
1598066195.7,286047000.0,N
1598066215.5,286046999.8,N
1598066235.4,286047002.3,N
1598066255.2,286047000.1,N
1598066275.0,286047002.7,N
1598066275.9,286047002.7,N
1598066295.8,286047002.3,N
1598066315.6,286047000.0,N
1598066335.4,286047000.0,N
1598066355.3,286047000.8,N
1598066375.1,286047000.5,N
1598066395.9,286047001.2,N
1598066415.7,286047001.1,N
1598066435.5,286046998.6,N
1598066455.4,286047001.1,N
1598066475.2,286046998.7,N
1598066495.1,286046998.1,N
1598066496.0,286046998.1,N
1598066515.8,286047001.2,N
1598066535.6,286047001.1,N
1598066555.5,286047000.5,N
1598066575.3,286046998.2,N
1598066595.1,286047001.0,N
1598066615.9,286046998.8,N
1598066635.7,286046998.8,N
1598066655.6,286046999.0,N
1598066675.4,286046996.6,N
1598066695.2,286046997.0,N
1598066715.1,286046996.6,N
1598066716.0,286046996.6,N
1598066735.8,286046996.6,N
1598066755.6,286046996.5,N
1598066775.5,286046996.8,N
1598066795.3,286046999.5,N
1598066815.2,286046996.8,N
1598066835.9,286046995.4,N
1598066855.7,286046995.1,N
1598066875.6,286046997.9,N
1598066895.4,286046997.5,N
1598066915.2,286046997.8,N
1598066935.1,286046998.0,N
1598066936.0,286046998.0,N
1598066955.8,286046995.5,N
1598066975.7,286046995.5,N
1598066995.5,286046995.3,N
1598067015.3,286046996.2,N
1598067035.2,286046996.2,N
1598067055.0,286046995.2,N
1598067055.9,286046995.2,N
1598067075.8,286046995.5,N
1598067095.6,286046995.8,N
1598067115.4,286046995.5,Y
1598067135.3,286046999.3,P
1598067155.1,286046998.5,N
1598067175.9,286047000.7,N
1598067195.7,286046998.4,N
1598067215.5,286046996.5,N
1598067235.4,286046996.6,N
1598067255.2,286046996.6,N
1598067275.0,286046996.9,N
1598067275.9,286046996.9,N
1598067295.8,286046996.5,N
1598067315.6,286046999.4,N
1598067335.5,286046997.1,N
1598067355.3,286046996.9,N
1598067375.1,286046999.6,N
1598067395.9,286046999.6,N
1598067415.7,286046999.1,N
1598067435.5,286046998.9,N
1598067455.4,286046998.9,N
1598067475.2,286046996.5,N
1598067495.1,286046996.5,N
1598067496.0,286046996.5,N
1598067515.8,286046999.2,N
1598067535.6,286046996.5,N
1598067555.5,286046996.5,N
1598067575.3,286046996.8,N
1598067595.2,286046996.8,N
1598067615.9,286046996.9,N
1598067635.7,286046999.6,N
1598067655.6,286046999.6,N
1598067675.4,286046999.0,N
1598067695.2,286046996.9,N
1598067715.1,286046996.9,N
1598067716.0,286046996.9,N
1598067735.8,286046999.0,N
1598067755.7,286046999.5,N
1598067775.5,286047011.9,Y
1598067795.3,286047000.1,P
1598067815.2,286046999.8,N
1598067835.0,286047002.8,N
1598067835.9,286047002.8,N
1598067855.8,286046999.7,N
1598067875.6,286046999.7,N
1598067895.4,286047000.1,N
1598067915.3,286047002.8,N
1598067935.1,286047002.6,N
1598067955.8,286047002.0,N
1598067975.7,286047002.8,N
1598067995.5,286047002.6,N
1598068015.4,286047001.5,N
1598068035.2,286047001.4,N
1598068055.0,286047001.4,N
1598068055.9,286047001.4,N
1598068075.8,286047001.8,N
1598068095.6,286047001.5,N
1598068115.4,286047001.4,N
1598068135.3,286047001.4,N
1598068155.1,286047001.4,N
1598068175.9,286047001.7,N
1598068195.7,286047004.3,Y
1598068215.5,286047001.4,P
1598068235.4,286047001.4,P
1598068255.2,286047002.8,P
1598068275.0,286047002.4,Y
1598068275.9,286047002.4,P
1598068295.8,286047000.8,N
1598068315.6,286046998.5,N
1598068335.5,286047001.2,N
1598068355.3,286046998.2,N
1598068375.1,286047000.7,N
1598068395.9,286047000.8,N
1598068415.7,286047000.6,N
1598068435.5,286047000.8,N
1598068455.4,286046998.3,N
1598068475.2,286046998.5,N
1598068495.1,286047000.7,N
1598068496.0,286047000.7,N
1598068515.8,286046999.9,N
1598068535.6,286047000.8,N
1598068555.5,286047001.2,N
1598068575.3,286047001.0,N
1598068595.1,286047001.0,N
1598068615.9,286047001.0,N
1598068635.7,286047000.4,N
1598068655.6,286047000.7,N
1598068675.4,286046998.3,N
1598068695.2,286047000.6,N
1598068715.1,286047000.4,N
1598068716.0,286047000.4,N
1598068735.8,286047000.4,N
1598068755.6,286047000.0,N
1598068775.5,286047000.3,N
1598068795.3,286047001.0,N
